GEFSGL_prec_meanprecacc_120.txt.gz
Total_Precipitation_Accumulation
0.53 0.53 0.53 0.52 0.52 0.55 0.62 0.63 0.65 0.67 0.69 0.70 0.73 0.76 0.81 0.85 0.90 0.95 0.99 1.08 1.13 1.17 1.23 1.35 1.44 1.58 1.57 1.48 1.53 1.63 1.76 1.86 1.67 1.64 1.61 1.42 1.32 1.18 1.07 1.01 0.88 0.80 0.66
0.47 0.48 0.50 0.48 0.45 0.47 0.49 0.50 0.53 0.57 0.60 0.61 0.64 0.66 0.71 0.77 0.86 0.95 1.01 1.07 1.09 1.09 1.13 1.24 1.29 1.36 1.46 1.42 1.37 1.38 1.55 1.71 1.71 1.71 1.83 1.76 1.53 1.36 1.25 1.13 0.93 0.78 0.72
0.47 0.47 0.44 0.47 0.48 0.46 0.40 0.39 0.40 0.44 0.51 0.50 0.50 0.53 0.59 0.69 0.80 0.87 0.92 0.96 1.04 1.11 1.09 1.09 1.10 1.17 1.35 1.48 1.47 1.45 1.50 1.61 1.72 1.73 1.85 1.89 1.68 1.47 1.45 1.30 1.14 1.10 0.82
0.43 0.42 0.41 0.40 0.40 0.43 0.41 0.37 0.36 0.38 0.43 0.46 0.48 0.53 0.57 0.63 0.70 0.74 0.74 0.74 0.77 0.86 0.90 0.89 0.87 0.89 1.06 1.32 1.41 1.53 1.57 1.57 1.68 1.73 1.83 1.94 1.96 1.75 1.66 1.52 1.39 1.29 1.10
0.45 0.42 0.41 0.40 0.37 0.35 0.33 0.31 0.31 0.31 0.31 0.36 0.41 0.48 0.53 0.55 0.53 0.55 0.59 0.55 0.55 0.54 0.57 0.61 0.63 0.66 0.68 0.81 1.02 1.28 1.47 1.55 1.59 1.71 1.79 1.88 1.91 1.91 1.66 1.54 1.49 1.47 1.39
0.36 0.35 0.37 0.38 0.37 0.37 0.31 0.27 0.27 0.28 0.30 0.34 0.37 0.38 0.41 0.40 0.43 0.44 0.44 0.43 0.41 0.40 0.39 0.40 0.40 0.41 0.43 0.50 0.59 0.80 1.04 1.29 1.53 1.69 1.76 1.80 1.84 1.87 1.81 1.70 1.62 1.51 1.52
0.28 0.31 0.33 0.37 0.40 0.38 0.30 0.26 0.26 0.27 0.30 0.34 0.36 0.38 0.38 0.41 0.36 0.35 0.38 0.36 0.35 0.35 0.36 0.37 0.30 0.26 0.31 0.38 0.43 0.48 0.61 0.76 0.93 1.30 1.57 1.61 1.67 1.74 1.88 1.85 1.78 1.74 1.70
0.31 0.36 0.38 0.38 0.41 0.41 0.35 0.33 0.33 0.34 0.34 0.37 0.40 0.40 0.41 0.39 0.33 0.29 0.28 0.28 0.34 0.39 0.36 0.37 0.35 0.31 0.31 0.36 0.43 0.45 0.42 0.46 0.55 0.68 0.86 1.03 1.23 1.52 1.74 1.88 1.99 2.05 2.10
0.37 0.42 0.43 0.43 0.44 0.45 0.44 0.45 0.47 0.49 0.43 0.39 0.42 0.45 0.45 0.45 0.36 0.30 0.29 0.29 0.35 0.40 0.38 0.38 0.39 0.36 0.30 0.26 0.34 0.43 0.43 0.43 0.44 0.51 0.58 0.75 0.91 1.11 1.38 1.58 1.71 1.87 2.16
0.37 0.38 0.38 0.43 0.49 0.51 0.54 0.57 0.59 0.61 0.54 0.48 0.46 0.50 0.52 0.53 0.43 0.30 0.29 0.33 0.40 0.45 0.45 0.43 0.40 0.35 0.30 0.25 0.30 0.39 0.42 0.41 0.45 0.50 0.51 0.53 0.60 0.70 0.89 1.10 1.23 1.41 1.67
0.38 0.39 0.41 0.44 0.50 0.54 0.63 0.70 0.74 0.72 0.69 0.63 0.58 0.58 0.61 0.56 0.47 0.30 0.29 0.36 0.45 0.54 0.54 0.52 0.50 0.41 0.29 0.27 0.30 0.37 0.38 0.43 0.52 0.59 0.63 0.65 0.63 0.61 0.65 0.79 0.96 1.03 1.13
0.43 0.43 0.43 0.49 0.42 0.43 0.64 0.75 0.81 0.84 0.78 0.72 0.72 0.69 0.69 0.66 0.51 0.38 0.30 0.35 0.45 0.62 0.68 0.66 0.61 0.48 0.38 0.32 0.31 0.31 0.32 0.34 0.44 0.55 0.62 0.67 0.67 0.60 0.58 0.67 0.84 0.98 0.99
0.54 0.56 0.57 0.56 0.57 0.62 0.72 0.78 0.81 0.84 0.83 0.77 0.80 0.79 0.78 0.78 0.70 0.45 0.36 0.37 0.41 0.57 0.68 0.67 0.61 0.49 0.44 0.40 0.39 0.37 0.33 0.35 0.43 0.49 0.53 0.61 0.63 0.60 0.62 0.73 0.86 1.00 1.04
0.64 0.65 0.69 0.73 0.72 0.74 0.86 0.89 0.86 0.87 0.89 0.85 0.85 0.85 0.85 0.86 0.86 0.75 0.60 0.52 0.51 0.53 0.59 0.64 0.64 0.58 0.51 0.50 0.49 0.43 0.39 0.42 0.48 0.49 0.52 0.60 0.69 0.71 0.72 0.71 0.80 0.89 1.01
0.71 0.69 0.73 0.81 0.88 0.90 0.90 0.90 0.86 0.88 0.83 0.81 0.82 0.83 0.86 0.85 0.78 0.70 0.71 0.71 0.69 0.67 0.70 0.79 0.83 0.75 0.68 0.65 0.64 0.61 0.58 0.54 0.50 0.53 0.58 0.64 0.70 0.73 0.74 0.78 0.80 0.83 0.82
0.81 0.76 0.75 0.77 0.84 0.88 0.88 0.76 0.63 0.60 0.53 0.50 0.54 0.60 0.63 0.60 0.58 0.56 0.57 0.59 0.63 0.71 0.75 0.82 0.92 0.95 0.89 0.81 0.76 0.75 0.72 0.65 0.58 0.58 0.61 0.63 0.66 0.70 0.72 0.79 0.84 0.83 0.81
0.82 0.80 0.78 0.78 0.82 0.85 0.85 0.83 0.76 0.66 0.56 0.50 0.48 0.46 0.48 0.49 0.53 0.54 0.56 0.58 0.60 0.66 0.73 0.82 0.92 0.98 1.01 0.98 0.90 0.81 0.78 0.71 0.66 0.65 0.65 0.67 0.67 0.70 0.73 0.76 0.80 0.83 0.82
0.73 0.73 0.73 0.75 0.77 0.79 0.81 0.86 0.89 0.84 0.79 0.72 0.61 0.53 0.45 0.43 0.47 0.52 0.57 0.62 0.65 0.65 0.72 0.84 0.94 0.98 1.03 1.03 0.95 0.91 0.86 0.80 0.74 0.71 0.70 0.71 0.69 0.71 0.73 0.73 0.75 0.75 0.78
0.72 0.71 0.70 0.71 0.72 0.72 0.77 0.85 0.89 0.86 0.87 0.85 0.78 0.67 0.56 0.50 0.50 0.57 0.59 0.63 0.69 0.71 0.74 0.86 0.94 0.98 0.97 0.94 0.91 0.89 0.83 0.78 0.75 0.73 0.72 0.71 0.70 0.71 0.74 0.76 0.75 0.77 0.78
0.76 0.75 0.80 0.79 0.74 0.71 0.75 0.84 0.87 0.88 0.89 0.91 0.91 0.77 0.64 0.59 0.64 0.69 0.65 0.65 0.67 0.67 0.71 0.81 0.90 0.93 0.91 0.87 0.84 0.78 0.77 0.76 0.73 0.71 0.72 0.71 0.72 0.72 0.69 0.70 0.73 0.70 0.70
0.83 0.77 0.76 0.75 0.74 0.73 0.78 0.85 0.91 0.91 0.88 0.88 0.87 0.70 0.60 0.60 0.65 0.66 0.64 0.64 0.61 0.60 0.66 0.78 0.85 0.85 0.82 0.78 0.76 0.71 0.68 0.70 0.68 0.66 0.69 0.71 0.72 0.71 0.66 0.64 0.66 0.65 0.64
0.91 0.85 0.76 0.71 0.71 0.76 0.80 0.85 0.90 0.85 0.80 0.81 0.80 0.67 0.57 0.59 0.62 0.61 0.58 0.56 0.54 0.52 0.56 0.65 0.73 0.76 0.72 0.67 0.66 0.67 0.66 0.65 0.67 0.65 0.65 0.67 0.70 0.67 0.63 0.64 0.65 0.65 0.68
0.89 0.86 0.81 0.74 0.68 0.71 0.75 0.80 0.81 0.76 0.73 0.72 0.72 0.66 0.62 0.64 0.59 0.52 0.51 0.50 0.51 0.53 0.53 0.56 0.60 0.62 0.60 0.58 0.60 0.63 0.63 0.60 0.60 0.62 0.64 0.65 0.65 0.60 0.58 0.60 0.59 0.62 0.66
0.82 0.83 0.81 0.73 0.64 0.63 0.70 0.77 0.77 0.75 0.75 0.71 0.64 0.60 0.59 0.61 0.56 0.48 0.46 0.48 0.49 0.49 0.49 0.51 0.49 0.48 0.50 0.52 0.53 0.53 0.52 0.48 0.49 0.55 0.56 0.58 0.61 0.57 0.57 0.57 0.54 0.57 0.67
0.76 0.77 0.78 0.74 0.64 0.59 0.68 0.77 0.77 0.72 0.69 0.65 0.58 0.56 0.55 0.54 0.54 0.52 0.49 0.48 0.47 0.47 0.43 0.44 0.46 0.44 0.44 0.44 0.44 0.43 0.39 0.37 0.38 0.42 0.46 0.50 0.55 0.57 0.56 0.57 0.57 0.60 0.66
0.75 0.73 0.72 0.69 0.62 0.58 0.64 0.72 0.73 0.67 0.65 0.59 0.51 0.49 0.51 0.52 0.53 0.53 0.50 0.47 0.46 0.43 0.40 0.40 0.41 0.39 0.36 0.37 0.35 0.30 0.26 0.25 0.28 0.32 0.36 0.43 0.51 0.57 0.55 0.55 0.56 0.59 0.60

GEFSGL_prec_meanprecacc_126.txt.gz
Total_Precipitation_Accumulation
0.53 0.53 0.53 0.52 0.52 0.55 0.62 0.63 0.65 0.67 0.69 0.70 0.73 0.76 0.81 0.85 0.90 0.95 0.99 1.08 1.13 1.17 1.23 1.35 1.44 1.58 1.57 1.48 1.53 1.63 1.76 1.86 1.67 1.64 1.61 1.43 1.33 1.19 1.09 1.03 0.90 0.82 0.68
0.47 0.48 0.50 0.48 0.45 0.47 0.49 0.50 0.53 0.57 0.60 0.61 0.64 0.66 0.71 0.77 0.86 0.95 1.01 1.07 1.09 1.09 1.13 1.24 1.29 1.36 1.46 1.42 1.37 1.38 1.55 1.71 1.71 1.71 1.84 1.76 1.53 1.37 1.26 1.15 0.95 0.80 0.75
0.47 0.47 0.45 0.47 0.48 0.46 0.40 0.39 0.40 0.44 0.51 0.50 0.50 0.53 0.59 0.69 0.80 0.87 0.92 0.96 1.04 1.11 1.09 1.09 1.10 1.17 1.35 1.48 1.47 1.45 1.50 1.61 1.72 1.73 1.85 1.90 1.69 1.48 1.45 1.31 1.15 1.12 0.85
0.43 0.43 0.41 0.40 0.40 0.43 0.41 0.37 0.36 0.38 0.43 0.46 0.48 0.53 0.57 0.63 0.70 0.74 0.74 0.74 0.77 0.86 0.90 0.89 0.87 0.89 1.06 1.32 1.41 1.53 1.57 1.57 1.68 1.73 1.84 1.94 1.97 1.76 1.67 1.52 1.40 1.30 1.12
0.46 0.42 0.41 0.40 0.37 0.35 0.33 0.31 0.31 0.31 0.31 0.36 0.41 0.48 0.53 0.55 0.53 0.55 0.59 0.55 0.55 0.54 0.57 0.61 0.63 0.66 0.68 0.81 1.02 1.28 1.47 1.55 1.60 1.71 1.80 1.89 1.92 1.93 1.68 1.55 1.50 1.47 1.40
0.36 0.35 0.37 0.38 0.37 0.37 0.31 0.28 0.27 0.28 0.30 0.34 0.37 0.38 0.41 0.40 0.43 0.44 0.44 0.43 0.41 0.40 0.39 0.40 0.40 0.41 0.44 0.50 0.59 0.80 1.05 1.29 1.53 1.69 1.76 1.80 1.84 1.89 1.83 1.72 1.63 1.51 1.52
0.28 0.31 0.34 0.37 0.40 0.39 0.30 0.27 0.26 0.28 0.30 0.34 0.36 0.38 0.38 0.41 0.36 0.35 0.38 0.36 0.35 0.35 0.37 0.38 0.30 0.26 0.31 0.38 0.43 0.48 0.62 0.76 0.93 1.30 1.57 1.61 1.67 1.74 1.88 1.86 1.79 1.75 1.71
0.32 0.36 0.38 0.39 0.41 0.41 0.36 0.33 0.34 0.35 0.35 0.37 0.40 0.40 0.41 0.39 0.33 0.29 0.29 0.28 0.34 0.39 0.36 0.37 0.35 0.31 0.31 0.37 0.43 0.45 0.42 0.46 0.55 0.68 0.86 1.03 1.23 1.53 1.75 1.88 1.99 2.06 2.11
0.38 0.42 0.43 0.43 0.45 0.45 0.44 0.45 0.47 0.49 0.43 0.39 0.42 0.45 0.45 0.45 0.36 0.30 0.29 0.29 0.35 0.40 0.38 0.38 0.39 0.36 0.31 0.26 0.35 0.44 0.43 0.43 0.44 0.51 0.58 0.75 0.92 1.11 1.38 1.59 1.71 1.87 2.16
0.37 0.39 0.38 0.43 0.49 0.52 0.54 0.57 0.59 0.61 0.54 0.48 0.46 0.50 0.52 0.53 0.43 0.30 0.29 0.33 0.40 0.45 0.45 0.43 0.40 0.35 0.30 0.26 0.31 0.39 0.43 0.42 0.45 0.50 0.51 0.53 0.60 0.70 0.90 1.10 1.23 1.42 1.68
0.38 0.40 0.41 0.44 0.50 0.54 0.63 0.70 0.74 0.72 0.69 0.63 0.58 0.58 0.61 0.56 0.47 0.30 0.29 0.36 0.45 0.54 0.54 0.52 0.50 0.41 0.30 0.27 0.30 0.37 0.38 0.43 0.52 0.60 0.64 0.65 0.63 0.61 0.65 0.79 0.96 1.03 1.14
0.43 0.43 0.44 0.49 0.42 0.43 0.64 0.75 0.81 0.84 0.78 0.72 0.72 0.69 0.69 0.66 0.51 0.38 0.30 0.35 0.45 0.62 0.68 0.66 0.61 0.48 0.38 0.32 0.31 0.31 0.32 0.35 0.44 0.55 0.62 0.68 0.68 0.61 0.59 0.67 0.85 0.98 1.00
0.54 0.56 0.57 0.56 0.57 0.62 0.72 0.78 0.81 0.84 0.83 0.77 0.80 0.79 0.78 0.78 0.70 0.45 0.36 0.37 0.41 0.57 0.68 0.68 0.62 0.50 0.44 0.40 0.39 0.37 0.33 0.36 0.43 0.49 0.53 0.61 0.63 0.60 0.63 0.73 0.87 1.01 1.04
0.64 0.66 0.70 0.74 0.72 0.75 0.86 0.89 0.86 0.87 0.89 0.85 0.85 0.85 0.85 0.86 0.86 0.75 0.60 0.52 0.51 0.53 0.59 0.64 0.64 0.58 0.51 0.50 0.49 0.44 0.39 0.43 0.48 0.50 0.53 0.60 0.69 0.72 0.73 0.72 0.80 0.90 1.01
0.72 0.70 0.74 0.82 0.89 0.90 0.91 0.90 0.86 0.88 0.83 0.81 0.82 0.83 0.86 0.85 0.78 0.70 0.71 0.71 0.69 0.68 0.71 0.79 0.83 0.76 0.68 0.65 0.65 0.61 0.58 0.55 0.51 0.54 0.59 0.65 0.72 0.75 0.76 0.78 0.81 0.84 0.83
0.82 0.77 0.76 0.78 0.85 0.88 0.88 0.76 0.63 0.60 0.53 0.50 0.54 0.60 0.63 0.60 0.58 0.57 0.57 0.59 0.63 0.71 0.75 0.83 0.92 0.96 0.90 0.82 0.78 0.76 0.73 0.65 0.59 0.59 0.63 0.65 0.68 0.72 0.74 0.80 0.85 0.84 0.82
0.82 0.81 0.79 0.78 0.83 0.85 0.86 0.84 0.76 0.66 0.56 0.50 0.48 0.47 0.48 0.50 0.53 0.54 0.56 0.59 0.61 0.66 0.73 0.82 0.93 0.99 1.01 0.98 0.90 0.82 0.78 0.72 0.66 0.67 0.68 0.70 0.70 0.73 0.75 0.77 0.81 0.84 0.84
0.74 0.74 0.74 0.75 0.77 0.79 0.81 0.86 0.89 0.84 0.79 0.72 0.62 0.53 0.45 0.43 0.47 0.53 0.57 0.63 0.65 0.66 0.72 0.84 0.94 0.98 1.03 1.03 0.96 0.92 0.87 0.80 0.74 0.72 0.72 0.73 0.72 0.74 0.77 0.76 0.77 0.77 0.80
0.72 0.72 0.71 0.71 0.72 0.72 0.77 0.85 0.89 0.87 0.87 0.85 0.78 0.67 0.56 0.50 0.51 0.57 0.59 0.63 0.69 0.71 0.74 0.86 0.95 0.99 0.97 0.95 0.92 0.90 0.84 0.78 0.76 0.74 0.74 0.73 0.73 0.74 0.77 0.79 0.77 0.80 0.80
0.76 0.75 0.80 0.79 0.74 0.72 0.76 0.84 0.88 0.88 0.89 0.92 0.91 0.78 0.64 0.60 0.65 0.69 0.66 0.66 0.67 0.68 0.71 0.82 0.91 0.95 0.93 0.89 0.85 0.80 0.78 0.76 0.74 0.73 0.74 0.72 0.73 0.73 0.71 0.72 0.75 0.72 0.74
0.84 0.78 0.76 0.75 0.75 0.74 0.78 0.85 0.91 0.91 0.88 0.88 0.87 0.71 0.60 0.60 0.65 0.67 0.65 0.65 0.62 0.61 0.67 0.78 0.86 0.86 0.83 0.79 0.78 0.73 0.70 0.71 0.69 0.68 0.71 0.72 0.74 0.73 0.68 0.67 0.68 0.67 0.66
0.92 0.86 0.76 0.72 0.71 0.77 0.80 0.85 0.90 0.86 0.80 0.81 0.80 0.67 0.58 0.60 0.63 0.63 0.59 0.58 0.55 0.53 0.57 0.66 0.74 0.77 0.73 0.68 0.68 0.68 0.68 0.67 0.68 0.66 0.67 0.69 0.72 0.69 0.65 0.65 0.67 0.68 0.70
0.90 0.87 0.81 0.74 0.68 0.71 0.76 0.80 0.81 0.77 0.73 0.72 0.72 0.67 0.63 0.65 0.60 0.54 0.53 0.52 0.53 0.54 0.54 0.58 0.62 0.63 0.61 0.59 0.61 0.65 0.65 0.62 0.61 0.64 0.66 0.67 0.67 0.63 0.61 0.62 0.61 0.64 0.67
0.82 0.83 0.81 0.74 0.65 0.64 0.70 0.77 0.78 0.75 0.75 0.71 0.65 0.61 0.60 0.62 0.58 0.50 0.48 0.50 0.52 0.51 0.51 0.53 0.51 0.50 0.51 0.53 0.54 0.54 0.53 0.50 0.50 0.56 0.57 0.60 0.63 0.60 0.59 0.60 0.57 0.61 0.70
0.76 0.77 0.79 0.74 0.64 0.60 0.69 0.78 0.78 0.73 0.69 0.65 0.59 0.58 0.56 0.56 0.56 0.54 0.51 0.51 0.50 0.50 0.45 0.46 0.48 0.46 0.46 0.45 0.45 0.44 0.41 0.39 0.39 0.42 0.47 0.51 0.57 0.60 0.59 0.61 0.62 0.65 0.72
0.75 0.73 0.72 0.69 0.63 0.58 0.64 0.72 0.73 0.68 0.65 0.60 0.52 0.50 0.52 0.53 0.54 0.55 0.52 0.48 0.48 0.45 0.42 0.42 0.44 0.41 0.38 0.38 0.36 0.31 0.27 0.26 0.29 0.34 0.37 0.44 0.53 0.59 0.58 0.58 0.60 0.63 0.65

GEFSGL_prec_meanprecacc_132.txt.gz
Total_Precipitation_Accumulation
0.53 0.53 0.53 0.52 0.52 0.55 0.62 0.63 0.66 0.67 0.69 0.70 0.73 0.76 0.81 0.85 0.91 0.95 0.99 1.08 1.13 1.17 1.24 1.35 1.45 1.58 1.57 1.48 1.54 1.64 1.77 1.88 1.68 1.65 1.62 1.44 1.34 1.20 1.10 1.04 0.92 0.85 0.72
0.47 0.48 0.50 0.48 0.45 0.47 0.49 0.50 0.53 0.57 0.60 0.61 0.64 0.66 0.71 0.77 0.86 0.96 1.01 1.07 1.09 1.09 1.13 1.24 1.29 1.37 1.47 1.43 1.37 1.39 1.56 1.72 1.72 1.72 1.85 1.77 1.55 1.39 1.28 1.16 0.96 0.82 0.79
0.47 0.47 0.45 0.47 0.48 0.46 0.40 0.39 0.40 0.44 0.51 0.50 0.50 0.53 0.59 0.69 0.80 0.87 0.92 0.96 1.04 1.11 1.09 1.09 1.10 1.17 1.36 1.49 1.48 1.45 1.50 1.62 1.73 1.73 1.86 1.91 1.70 1.49 1.47 1.32 1.16 1.14 0.87
0.43 0.43 0.41 0.40 0.40 0.43 0.41 0.37 0.36 0.38 0.43 0.46 0.48 0.53 0.57 0.63 0.70 0.74 0.74 0.74 0.77 0.86 0.90 0.89 0.88 0.90 1.07 1.33 1.42 1.54 1.58 1.58 1.69 1.74 1.84 1.95 1.98 1.77 1.68 1.54 1.42 1.32 1.13
0.46 0.43 0.41 0.40 0.37 0.35 0.33 0.31 0.31 0.31 0.31 0.36 0.41 0.48 0.53 0.55 0.53 0.55 0.59 0.55 0.55 0.54 0.57 0.61 0.63 0.66 0.68 0.82 1.02 1.29 1.48 1.56 1.61 1.72 1.81 1.90 1.93 1.94 1.69 1.57 1.51 1.49 1.42
0.37 0.35 0.38 0.39 0.37 0.37 0.31 0.28 0.27 0.28 0.30 0.34 0.37 0.38 0.41 0.40 0.43 0.44 0.45 0.43 0.41 0.40 0.40 0.41 0.41 0.41 0.44 0.50 0.59 0.80 1.05 1.30 1.55 1.71 1.78 1.82 1.86 1.91 1.85 1.74 1.65 1.54 1.54
0.29 0.31 0.34 0.37 0.40 0.39 0.30 0.27 0.26 0.28 0.30 0.34 0.36 0.38 0.38 0.41 0.36 0.35 0.38 0.36 0.35 0.35 0.37 0.38 0.30 0.26 0.31 0.38 0.43 0.48 0.62 0.76 0.93 1.31 1.59 1.63 1.69 1.77 1.92 1.89 1.82 1.78 1.74
0.32 0.36 0.38 0.39 0.42 0.41 0.36 0.33 0.34 0.35 0.35 0.37 0.40 0.40 0.41 0.39 0.33 0.29 0.29 0.28 0.34 0.39 0.37 0.38 0.35 0.31 0.31 0.37 0.44 0.46 0.43 0.48 0.56 0.69 0.87 1.05 1.26 1.57 1.79 1.92 2.03 2.09 2.14
0.38 0.42 0.43 0.44 0.45 0.45 0.44 0.45 0.47 0.49 0.43 0.39 0.42 0.45 0.45 0.45 0.36 0.30 0.29 0.29 0.35 0.41 0.38 0.38 0.40 0.36 0.31 0.26 0.35 0.44 0.44 0.44 0.45 0.51 0.59 0.76 0.92 1.12 1.39 1.60 1.74 1.90 2.18
0.37 0.39 0.39 0.44 0.49 0.52 0.54 0.57 0.59 0.61 0.54 0.48 0.46 0.50 0.52 0.53 0.43 0.30 0.29 0.33 0.40 0.45 0.46 0.44 0.40 0.35 0.30 0.26 0.31 0.40 0.44 0.43 0.47 0.52 0.52 0.54 0.60 0.71 0.90 1.10 1.25 1.45 1.70
0.39 0.40 0.41 0.45 0.51 0.54 0.63 0.70 0.74 0.72 0.69 0.63 0.58 0.58 0.61 0.56 0.47 0.30 0.29 0.36 0.45 0.54 0.54 0.53 0.51 0.41 0.30 0.27 0.30 0.37 0.39 0.43 0.54 0.62 0.66 0.68 0.65 0.63 0.68 0.81 0.98 1.06 1.17
0.43 0.44 0.44 0.49 0.43 0.43 0.65 0.75 0.81 0.84 0.78 0.72 0.72 0.69 0.69 0.66 0.51 0.38 0.30 0.35 0.45 0.62 0.69 0.67 0.62 0.49 0.38 0.32 0.31 0.31 0.32 0.35 0.44 0.56 0.64 0.70 0.70 0.63 0.62 0.70 0.88 1.02 1.03
0.54 0.57 0.58 0.56 0.57 0.62 0.72 0.79 0.81 0.84 0.83 0.77 0.80 0.79 0.78 0.78 0.70 0.45 0.36 0.37 0.41 0.57 0.68 0.68 0.62 0.50 0.45 0.41 0.39 0.37 0.33 0.36 0.44 0.50 0.54 0.63 0.66 0.64 0.66 0.77 0.91 1.05 1.08
0.65 0.67 0.71 0.75 0.73 0.75 0.86 0.89 0.87 0.87 0.89 0.85 0.85 0.85 0.85 0.86 0.86 0.75 0.60 0.52 0.51 0.53 0.59 0.65 0.64 0.58 0.51 0.50 0.50 0.44 0.40 0.43 0.49 0.51 0.54 0.62 0.72 0.74 0.76 0.75 0.84 0.94 1.05
0.73 0.71 0.75 0.82 0.89 0.91 0.91 0.90 0.86 0.89 0.83 0.81 0.82 0.83 0.86 0.85 0.78 0.70 0.71 0.71 0.69 0.68 0.71 0.79 0.83 0.76 0.69 0.66 0.66 0.63 0.60 0.56 0.53 0.56 0.61 0.67 0.74 0.78 0.78 0.81 0.84 0.88 0.87
0.83 0.78 0.76 0.78 0.85 0.88 0.89 0.76 0.64 0.60 0.53 0.50 0.54 0.60 0.63 0.60 0.58 0.57 0.57 0.59 0.63 0.71 0.75 0.83 0.92 0.96 0.90 0.83 0.79 0.77 0.75 0.67 0.61 0.62 0.66 0.68 0.71 0.75 0.76 0.83 0.88 0.87 0.85
0.83 0.81 0.80 0.79 0.83 0.85 0.86 0.84 0.77 0.66 0.57 0.51 0.48 0.47 0.49 0.50 0.53 0.54 0.56 0.59 0.61 0.67 0.73 0.83 0.93 0.99 1.02 0.99 0.91 0.83 0.80 0.74 0.69 0.70 0.71 0.73 0.73 0.76 0.78 0.80 0.85 0.87 0.87
0.75 0.75 0.75 0.76 0.78 0.80 0.82 0.86 0.90 0.84 0.79 0.72 0.62 0.53 0.45 0.43 0.47 0.53 0.57 0.63 0.65 0.66 0.72 0.84 0.94 0.98 1.04 1.04 0.97 0.93 0.88 0.82 0.76 0.75 0.76 0.77 0.76 0.78 0.80 0.79 0.81 0.81 0.83
0.73 0.72 0.71 0.72 0.73 0.72 0.78 0.86 0.89 0.87 0.87 0.85 0.78 0.67 0.56 0.50 0.51 0.57 0.59 0.63 0.69 0.71 0.75 0.87 0.96 1.00 0.99 0.97 0.94 0.92 0.86 0.81 0.80 0.79 0.80 0.79 0.78 0.79 0.81 0.84 0.84 0.85 0.85
0.77 0.76 0.80 0.79 0.74 0.72 0.76 0.85 0.88 0.89 0.90 0.92 0.91 0.78 0.64 0.60 0.65 0.70 0.66 0.66 0.68 0.69 0.72 0.83 0.93 0.97 0.95 0.91 0.88 0.83 0.81 0.81 0.79 0.79 0.80 0.78 0.78 0.78 0.76 0.78 0.82 0.80 0.80
0.84 0.78 0.77 0.76 0.75 0.74 0.78 0.86 0.91 0.91 0.89 0.89 0.87 0.71 0.60 0.60 0.65 0.67 0.65 0.66 0.64 0.63 0.69 0.81 0.88 0.89 0.85 0.82 0.82 0.77 0.74 0.75 0.74 0.73 0.76 0.78 0.79 0.78 0.72 0.71 0.73 0.73 0.73
0.92 0.86 0.76 0.72 0.72 0.77 0.80 0.85 0.90 0.86 0.80 0.81 0.81 0.68 0.58 0.60 0.63 0.63 0.60 0.59 0.57 0.55 0.60 0.69 0.77 0.80 0.76 0.72 0.72 0.73 0.72 0.71 0.73 0.72 0.72 0.74 0.77 0.74 0.70 0.70 0.72 0.73 0.77
0.90 0.87 0.81 0.74 0.69 0.71 0.76 0.80 0.81 0.77 0.74 0.72 0.73 0.67 0.63 0.66 0.61 0.55 0.54 0.53 0.54 0.55 0.56 0.60 0.65 0.68 0.66 0.64 0.67 0.70 0.70 0.68 0.67 0.68 0.71 0.71 0.72 0.67 0.65 0.67 0.65 0.69 0.73
0.82 0.83 0.81 0.74 0.65 0.64 0.70 0.78 0.78 0.76 0.76 0.72 0.65 0.61 0.61 0.64 0.60 0.52 0.50 0.51 0.53 0.53 0.53 0.56 0.55 0.55 0.58 0.60 0.61 0.61 0.60 0.56 0.56 0.60 0.61 0.63 0.66 0.63 0.63 0.64 0.61 0.65 0.76
0.76 0.77 0.79 0.74 0.64 0.60 0.69 0.78 0.78 0.73 0.70 0.66 0.60 0.59 0.58 0.57 0.58 0.56 0.54 0.53 0.52 0.52 0.48 0.50 0.53 0.52 0.53 0.52 0.52 0.51 0.46 0.44 0.43 0.46 0.49 0.54 0.60 0.63 0.62 0.63 0.65 0.70 0.79
0.75 0.73 0.72 0.69 0.63 0.59 0.64 0.73 0.74 0.69 0.66 0.61 0.53 0.52 0.54 0.55 0.57 0.58 0.55 0.51 0.51 0.48 0.45 0.46 0.48 0.47 0.44 0.44 0.42 0.36 0.31 0.29 0.31 0.36 0.38 0.45 0.55 0.62 0.61 0.62 0.64 0.68 0.72

GEFSGL_prec_meanprecacc_138.txt.gz
Total_Precipitation_Accumulation
0.54 0.54 0.53 0.53 0.53 0.56 0.62 0.63 0.66 0.67 0.69 0.70 0.73 0.76 0.81 0.85 0.91 0.95 1.00 1.09 1.14 1.18 1.24 1.35 1.46 1.59 1.58 1.49 1.54 1.64 1.78 1.88 1.69 1.66 1.63 1.45 1.35 1.21 1.11 1.05 0.93 0.87 0.74
0.48 0.49 0.51 0.49 0.46 0.48 0.49 0.50 0.53 0.57 0.60 0.61 0.64 0.66 0.71 0.77 0.86 0.96 1.02 1.07 1.09 1.10 1.14 1.24 1.30 1.37 1.47 1.43 1.38 1.39 1.56 1.73 1.72 1.73 1.85 1.78 1.56 1.40 1.29 1.17 0.97 0.83 0.79
0.48 0.48 0.46 0.48 0.49 0.46 0.41 0.39 0.40 0.44 0.51 0.50 0.50 0.53 0.59 0.69 0.80 0.87 0.92 0.96 1.04 1.12 1.09 1.09 1.11 1.18 1.36 1.50 1.49 1.46 1.51 1.62 1.74 1.74 1.86 1.91 1.70 1.50 1.48 1.33 1.17 1.15 0.87
0.44 0.44 0.42 0.41 0.41 0.43 0.41 0.38 0.36 0.38 0.43 0.46 0.48 0.53 0.57 0.63 0.70 0.74 0.74 0.75 0.77 0.86 0.90 0.89 0.88 0.90 1.07 1.35 1.44 1.55 1.60 1.59 1.70 1.75 1.85 1.95 1.98 1.78 1.70 1.56 1.43 1.33 1.14
0.47 0.44 0.42 0.41 0.38 0.35 0.34 0.31 0.31 0.31 0.31 0.36 0.42 0.49 0.54 0.56 0.54 0.56 0.60 0.56 0.55 0.55 0.57 0.61 0.64 0.67 0.68 0.82 1.03 1.30 1.49 1.58 1.62 1.73 1.81 1.91 1.94 1.96 1.71 1.59 1.53 1.51 1.43
0.37 0.36 0.39 0.39 0.38 0.37 0.31 0.28 0.27 0.28 0.31 0.35 0.38 0.39 0.42 0.40 0.43 0.44 0.45 0.43 0.41 0.40 0.41 0.42 0.42 0.42 0.44 0.51 0.59 0.80 1.06 1.31 1.55 1.72 1.79 1.83 1.88 1.93 1.89 1.77 1.67 1.57 1.56
0.29 0.32 0.34 0.38 0.41 0.39 0.30 0.27 0.27 0.28 0.31 0.35 0.37 0.39 0.39 0.42 0.36 0.35 0.38 0.36 0.35 0.36 0.38 0.39 0.31 0.27 0.32 0.39 0.44 0.49 0.62 0.76 0.94 1.31 1.59 1.63 1.70 1.79 1.96 1.92 1.85 1.82 1.77
0.32 0.37 0.38 0.39 0.42 0.42 0.36 0.33 0.34 0.35 0.36 0.38 0.41 0.41 0.42 0.40 0.33 0.30 0.29 0.28 0.34 0.39 0.37 0.38 0.36 0.32 0.32 0.38 0.45 0.47 0.44 0.49 0.57 0.70 0.89 1.06 1.27 1.59 1.83 1.95 2.06 2.12 2.16
0.38 0.42 0.43 0.44 0.45 0.45 0.45 0.46 0.48 0.50 0.44 0.40 0.43 0.46 0.47 0.46 0.37 0.30 0.29 0.29 0.35 0.41 0.39 0.39 0.41 0.37 0.32 0.27 0.35 0.45 0.44 0.45 0.46 0.52 0.60 0.77 0.93 1.13 1.40 1.61 1.75 1.92 2.20
0.38 0.39 0.39 0.44 0.50 0.52 0.54 0.58 0.60 0.62 0.56 0.49 0.47 0.51 0.52 0.54 0.44 0.30 0.29 0.33 0.40 0.45 0.46 0.44 0.41 0.36 0.31 0.26 0.31 0.40 0.44 0.44 0.48 0.53 0.54 0.55 0.61 0.72 0.91 1.11 1.25 1.46 1.72
0.40 0.42 0.43 0.46 0.52 0.55 0.64 0.71 0.75 0.73 0.69 0.63 0.59 0.59 0.62 0.57 0.47 0.30 0.30 0.36 0.45 0.54 0.54 0.53 0.51 0.41 0.30 0.27 0.30 0.37 0.39 0.44 0.54 0.62 0.67 0.69 0.68 0.66 0.71 0.84 1.03 1.10 1.21
0.45 0.46 0.46 0.51 0.44 0.44 0.65 0.75 0.82 0.84 0.78 0.73 0.74 0.71 0.69 0.66 0.52 0.38 0.30 0.35 0.45 0.62 0.69 0.67 0.62 0.49 0.38 0.32 0.31 0.31 0.32 0.35 0.44 0.56 0.64 0.71 0.72 0.66 0.65 0.75 0.94 1.08 1.08
0.56 0.58 0.59 0.58 0.58 0.63 0.74 0.80 0.83 0.86 0.85 0.79 0.82 0.81 0.79 0.78 0.71 0.45 0.36 0.37 0.41 0.57 0.68 0.68 0.62 0.50 0.45 0.41 0.39 0.37 0.33 0.36 0.44 0.51 0.56 0.65 0.69 0.67 0.70 0.81 0.96 1.12 1.14
0.66 0.68 0.72 0.76 0.74 0.76 0.88 0.91 0.89 0.90 0.91 0.86 0.86 0.86 0.85 0.87 0.87 0.76 0.60 0.53 0.52 0.53 0.59 0.65 0.64 0.59 0.51 0.50 0.50 0.45 0.41 0.45 0.51 0.53 0.57 0.65 0.75 0.78 0.80 0.80 0.90 1.01 1.11
0.75 0.73 0.77 0.84 0.91 0.93 0.92 0.91 0.88 0.90 0.85 0.83 0.84 0.83 0.86 0.85 0.79 0.71 0.71 0.72 0.70 0.68 0.72 0.80 0.83 0.77 0.70 0.67 0.67 0.65 0.64 0.60 0.56 0.59 0.64 0.71 0.78 0.82 0.82 0.87 0.90 0.95 0.93
0.85 0.80 0.78 0.80 0.87 0.90 0.90 0.78 0.66 0.62 0.55 0.51 0.55 0.60 0.63 0.60 0.58 0.57 0.57 0.60 0.64 0.71 0.76 0.83 0.93 0.97 0.91 0.84 0.80 0.79 0.77 0.71 0.66 0.67 0.71 0.74 0.77 0.80 0.82 0.89 0.95 0.94 0.91
0.87 0.85 0.82 0.81 0.85 0.87 0.87 0.85 0.78 0.68 0.58 0.52 0.49 0.47 0.49 0.50 0.53 0.54 0.56 0.59 0.61 0.67 0.73 0.83 0.93 1.00 1.03 1.01 0.93 0.85 0.82 0.77 0.73 0.75 0.77 0.79 0.80 0.83 0.85 0.88 0.92 0.95 0.93
0.77 0.77 0.76 0.78 0.80 0.81 0.83 0.87 0.91 0.86 0.80 0.74 0.62 0.53 0.46 0.44 0.47 0.53 0.58 0.63 0.65 0.66 0.73 0.85 0.96 1.00 1.06 1.07 1.00 0.96 0.91 0.85 0.80 0.80 0.82 0.85 0.84 0.87 0.89 0.87 0.89 0.90 0.92
0.76 0.75 0.74 0.75 0.75 0.74 0.80 0.88 0.91 0.89 0.89 0.87 0.79 0.68 0.57 0.51 0.52 0.58 0.60 0.64 0.69 0.72 0.76 0.89 0.98 1.02 1.01 0.99 0.98 0.96 0.90 0.85 0.84 0.85 0.86 0.87 0.87 0.88 0.91 0.93 0.93 0.95 0.93
0.81 0.80 0.85 0.83 0.78 0.74 0.79 0.87 0.90 0.91 0.92 0.94 0.92 0.78 0.65 0.61 0.65 0.70 0.66 0.67 0.69 0.70 0.74 0.85 0.95 0.99 0.97 0.94 0.92 0.88 0.86 0.85 0.84 0.86 0.87 0.86 0.87 0.87 0.85 0.88 0.92 0.90 0.89
0.88 0.82 0.80 0.78 0.77 0.76 0.81 0.88 0.94 0.94 0.90 0.90 0.88 0.71 0.61 0.61 0.65 0.67 0.66 0.67 0.65 0.64 0.71 0.83 0.90 0.91 0.88 0.86 0.86 0.81 0.79 0.81 0.81 0.80 0.84 0.87 0.89 0.88 0.82 0.82 0.83 0.82 0.82
0.95 0.88 0.78 0.74 0.73 0.79 0.82 0.87 0.92 0.87 0.81 0.82 0.81 0.68 0.59 0.61 0.63 0.64 0.61 0.61 0.59 0.57 0.61 0.70 0.79 0.82 0.79 0.76 0.78 0.79 0.79 0.77 0.81 0.80 0.81 0.83 0.86 0.84 0.80 0.80 0.81 0.83 0.86
0.92 0.90 0.84 0.76 0.70 0.73 0.77 0.81 0.82 0.78 0.74 0.73 0.73 0.67 0.63 0.67 0.62 0.57 0.56 0.55 0.55 0.57 0.57 0.62 0.68 0.71 0.70 0.69 0.72 0.76 0.76 0.73 0.74 0.78 0.81 0.82 0.81 0.75 0.74 0.75 0.73 0.77 0.80
0.84 0.85 0.83 0.75 0.66 0.65 0.71 0.78 0.78 0.76 0.76 0.72 0.66 0.62 0.62 0.65 0.61 0.54 0.52 0.53 0.55 0.54 0.55 0.58 0.58 0.58 0.61 0.64 0.65 0.66 0.65 0.61 0.61 0.67 0.69 0.73 0.75 0.71 0.70 0.71 0.67 0.71 0.83
0.79 0.80 0.80 0.75 0.65 0.61 0.70 0.79 0.78 0.74 0.70 0.66 0.61 0.60 0.59 0.59 0.60 0.58 0.56 0.55 0.55 0.54 0.50 0.52 0.55 0.55 0.56 0.56 0.55 0.55 0.51 0.48 0.47 0.50 0.54 0.60 0.66 0.70 0.69 0.71 0.73 0.78 0.86
0.76 0.75 0.73 0.70 0.64 0.59 0.65 0.74 0.74 0.69 0.66 0.61 0.53 0.53 0.55 0.57 0.59 0.60 0.57 0.54 0.53 0.50 0.48 0.49 0.52 0.52 0.49 0.48 0.46 0.41 0.36 0.33 0.35 0.40 0.42 0.49 0.59 0.67 0.67 0.68 0.70 0.74 0.78

GEFSGL_prec_meanprecacc_144.txt.gz
Total_Precipitation_Accumulation
0.55 0.56 0.55 0.54 0.54 0.56 0.62 0.63 0.66 0.67 0.69 0.70 0.73 0.76 0.81 0.85 0.91 0.95 1.00 1.09 1.14 1.18 1.24 1.35 1.46 1.59 1.58 1.49 1.54 1.64 1.78 1.88 1.69 1.66 1.63 1.45 1.35 1.22 1.11 1.05 0.93 0.87 0.75
0.50 0.51 0.53 0.50 0.47 0.48 0.49 0.50 0.53 0.57 0.60 0.61 0.64 0.66 0.71 0.77 0.86 0.96 1.02 1.07 1.09 1.10 1.14 1.24 1.30 1.37 1.47 1.43 1.38 1.39 1.56 1.73 1.72 1.73 1.85 1.78 1.56 1.40 1.29 1.17 0.97 0.83 0.79
0.50 0.50 0.48 0.49 0.50 0.47 0.41 0.39 0.40 0.44 0.51 0.50 0.50 0.53 0.59 0.69 0.80 0.87 0.92 0.96 1.04 1.12 1.09 1.09 1.11 1.18 1.37 1.50 1.49 1.46 1.51 1.62 1.74 1.74 1.86 1.91 1.70 1.50 1.48 1.33 1.17 1.15 0.87
0.46 0.45 0.43 0.42 0.42 0.44 0.41 0.38 0.36 0.38 0.43 0.46 0.48 0.53 0.57 0.63 0.70 0.74 0.74 0.75 0.77 0.86 0.90 0.90 0.88 0.90 1.08 1.35 1.44 1.55 1.60 1.59 1.70 1.75 1.85 1.95 1.98 1.78 1.70 1.56 1.43 1.33 1.14
0.47 0.44 0.43 0.42 0.38 0.36 0.34 0.32 0.31 0.31 0.31 0.37 0.42 0.49 0.54 0.56 0.54 0.56 0.60 0.56 0.55 0.55 0.57 0.61 0.64 0.67 0.69 0.82 1.03 1.30 1.49 1.58 1.62 1.73 1.82 1.91 1.94 1.96 1.72 1.59 1.53 1.51 1.43
0.38 0.37 0.39 0.40 0.38 0.38 0.32 0.28 0.28 0.28 0.31 0.35 0.38 0.39 0.42 0.40 0.43 0.44 0.45 0.43 0.41 0.40 0.41 0.42 0.42 0.42 0.44 0.51 0.59 0.80 1.06 1.31 1.55 1.72 1.79 1.83 1.88 1.93 1.89 1.77 1.67 1.57 1.56
0.30 0.32 0.35 0.38 0.41 0.39 0.30 0.28 0.27 0.28 0.31 0.35 0.37 0.39 0.39 0.42 0.36 0.35 0.38 0.36 0.35 0.36 0.38 0.39 0.31 0.27 0.32 0.39 0.44 0.49 0.62 0.76 0.94 1.32 1.59 1.63 1.70 1.79 1.96 1.93 1.85 1.82 1.77
0.33 0.37 0.39 0.39 0.42 0.42 0.36 0.34 0.35 0.36 0.36 0.39 0.41 0.41 0.42 0.40 0.34 0.30 0.29 0.28 0.34 0.39 0.37 0.38 0.36 0.32 0.32 0.38 0.45 0.47 0.44 0.49 0.57 0.70 0.89 1.06 1.27 1.59 1.83 1.95 2.06 2.12 2.16
0.38 0.43 0.44 0.44 0.45 0.46 0.45 0.46 0.49 0.50 0.44 0.40 0.44 0.47 0.47 0.46 0.38 0.31 0.30 0.29 0.35 0.41 0.39 0.39 0.41 0.37 0.32 0.27 0.35 0.45 0.45 0.45 0.46 0.52 0.60 0.77 0.93 1.13 1.40 1.61 1.75 1.92 2.20
0.38 0.40 0.40 0.46 0.51 0.53 0.56 0.60 0.62 0.64 0.57 0.50 0.48 0.52 0.53 0.55 0.45 0.31 0.29 0.34 0.40 0.45 0.46 0.45 0.41 0.36 0.31 0.26 0.31 0.41 0.44 0.44 0.48 0.54 0.54 0.55 0.61 0.72 0.91 1.11 1.26 1.47 1.72
0.43 0.45 0.46 0.50 0.56 0.59 0.68 0.75 0.77 0.75 0.72 0.66 0.61 0.60 0.63 0.58 0.48 0.31 0.30 0.36 0.45 0.55 0.55 0.53 0.52 0.41 0.30 0.27 0.30 0.37 0.39 0.44 0.54 0.62 0.67 0.69 0.68 0.66 0.71 0.85 1.03 1.11 1.22
0.52 0.52 0.55 0.63 0.56 0.54 0.73 0.81 0.86 0.88 0.83 0.77 0.78 0.74 0.71 0.67 0.52 0.39 0.31 0.36 0.46 0.63 0.69 0.68 0.63 0.49 0.38 0.32 0.31 0.31 0.32 0.35 0.45 0.56 0.64 0.71 0.72 0.66 0.66 0.75 0.94 1.10 1.10
0.65 0.67 0.68 0.68 0.68 0.72 0.83 0.88 0.89 0.92 0.91 0.84 0.86 0.84 0.81 0.80 0.72 0.47 0.38 0.39 0.43 0.58 0.68 0.68 0.62 0.50 0.45 0.41 0.40 0.37 0.33 0.36 0.44 0.51 0.56 0.65 0.69 0.67 0.70 0.81 0.96 1.12 1.15
0.76 0.79 0.82 0.84 0.82 0.85 0.97 0.99 0.98 0.98 0.99 0.93 0.91 0.90 0.88 0.89 0.89 0.78 0.62 0.54 0.52 0.54 0.60 0.66 0.65 0.59 0.52 0.51 0.51 0.45 0.41 0.45 0.51 0.54 0.57 0.65 0.75 0.79 0.80 0.81 0.91 1.02 1.12
0.90 0.89 0.91 0.97 1.03 1.05 1.05 1.04 1.00 1.02 0.96 0.93 0.93 0.90 0.90 0.89 0.81 0.73 0.72 0.72 0.71 0.69 0.72 0.80 0.84 0.77 0.70 0.68 0.68 0.66 0.64 0.61 0.57 0.60 0.65 0.71 0.78 0.82 0.83 0.88 0.92 0.97 0.95
1.04 1.01 1.00 0.99 1.04 1.06 1.05 0.92 0.80 0.75 0.67 0.61 0.63 0.66 0.67 0.63 0.60 0.58 0.58 0.60 0.64 0.72 0.76 0.83 0.93 0.97 0.91 0.84 0.81 0.79 0.78 0.71 0.66 0.68 0.72 0.75 0.78 0.81 0.83 0.91 0.98 0.97 0.94
1.02 1.02 0.99 0.98 1.01 1.02 1.01 0.99 0.92 0.79 0.67 0.58 0.54 0.51 0.52 0.53 0.55 0.55 0.57 0.60 0.61 0.67 0.73 0.83 0.94 1.00 1.04 1.01 0.93 0.85 0.82 0.77 0.74 0.76 0.79 0.82 0.82 0.86 0.88 0.91 0.96 0.98 0.97
0.93 0.92 0.89 0.89 0.91 0.93 0.94 0.98 1.02 0.96 0.90 0.81 0.68 0.59 0.50 0.47 0.50 0.55 0.60 0.65 0.67 0.67 0.73 0.85 0.96 1.01 1.06 1.07 1.00 0.97 0.92 0.86 0.81 0.82 0.84 0.87 0.87 0.89 0.91 0.91 0.92 0.93 0.95
0.90 0.93 0.93 0.93 0.91 0.88 0.91 0.97 1.00 0.97 0.96 0.93 0.84 0.73 0.63 0.57 0.57 0.62 0.63 0.66 0.71 0.73 0.76 0.90 0.99 1.03 1.02 1.00 0.99 0.98 0.91 0.86 0.85 0.86 0.88 0.89 0.89 0.91 0.93 0.96 0.96 0.99 0.97
0.89 0.90 0.95 0.93 0.90 0.87 0.91 0.98 1.00 1.00 1.00 1.01 1.00 0.86 0.73 0.68 0.71 0.74 0.69 0.69 0.70 0.71 0.75 0.86 0.96 1.00 0.98 0.95 0.93 0.89 0.87 0.86 0.86 0.87 0.88 0.87 0.89 0.90 0.87 0.91 0.96 0.94 0.94
0.96 0.91 0.88 0.84 0.83 0.82 0.87 0.94 1.00 1.00 0.97 0.96 0.94 0.77 0.66 0.64 0.68 0.69 0.68 0.68 0.67 0.65 0.72 0.84 0.91 0.92 0.89 0.86 0.87 0.82 0.80 0.82 0.82 0.81 0.85 0.89 0.91 0.90 0.84 0.84 0.86 0.86 0.85
1.02 0.95 0.84 0.78 0.77 0.83 0.86 0.91 0.96 0.91 0.86 0.86 0.85 0.72 0.62 0.63 0.65 0.65 0.63 0.62 0.60 0.58 0.62 0.71 0.80 0.83 0.80 0.77 0.79 0.81 0.81 0.79 0.82 0.82 0.82 0.84 0.87 0.85 0.82 0.83 0.84 0.86 0.88
1.02 0.99 0.91 0.82 0.75 0.77 0.80 0.84 0.85 0.81 0.77 0.75 0.75 0.69 0.65 0.67 0.62 0.57 0.56 0.55 0.56 0.57 0.58 0.63 0.69 0.72 0.71 0.70 0.73 0.78 0.78 0.75 0.75 0.79 0.83 0.83 0.83 0.78 0.77 0.78 0.76 0.79 0.82
0.96 0.94 0.90 0.81 0.71 0.70 0.75 0.81 0.81 0.78 0.78 0.74 0.67 0.63 0.62 0.65 0.61 0.54 0.52 0.53 0.55 0.55 0.55 0.59 0.59 0.59 0.62 0.65 0.66 0.67 0.66 0.63 0.63 0.68 0.71 0.76 0.79 0.75 0.74 0.74 0.71 0.74 0.85
0.84 0.83 0.84 0.78 0.68 0.64 0.72 0.81 0.80 0.75 0.72 0.67 0.61 0.60 0.59 0.59 0.60 0.59 0.57 0.56 0.55 0.55 0.50 0.52 0.56 0.55 0.56 0.56 0.56 0.56 0.52 0.50 0.49 0.53 0.57 0.64 0.71 0.74 0.74 0.75 0.77 0.81 0.89
0.78 0.77 0.76 0.73 0.66 0.62 0.67 0.76 0.76 0.71 0.68 0.62 0.54 0.53 0.56 0.57 0.59 0.60 0.58 0.54 0.53 0.51 0.48 0.49 0.52 0.52 0.49 0.49 0.46 0.41 0.37 0.35 0.37 0.42 0.44 0.51 0.62 0.70 0.71 0.74 0.75 0.78 0.82

GEFSGL_prec_meanprecacc_150.txt.gz
Total_Precipitation_Accumulation
0.58 0.59 0.58 0.57 0.55 0.57 0.63 0.64 0.66 0.68 0.70 0.70 0.73 0.76 0.81 0.85 0.91 0.95 1.00 1.09 1.14 1.18 1.24 1.35 1.46 1.59 1.58 1.49 1.54 1.64 1.78 1.88 1.69 1.66 1.63 1.45 1.35 1.22 1.11 1.05 0.94 0.87 0.75
0.53 0.55 0.56 0.52 0.48 0.49 0.50 0.51 0.54 0.57 0.60 0.61 0.64 0.67 0.71 0.77 0.86 0.96 1.02 1.07 1.09 1.10 1.14 1.24 1.30 1.37 1.47 1.43 1.38 1.39 1.56 1.73 1.72 1.73 1.85 1.78 1.56 1.40 1.29 1.17 0.97 0.83 0.79
0.54 0.55 0.51 0.52 0.52 0.48 0.42 0.40 0.40 0.44 0.51 0.50 0.50 0.53 0.59 0.69 0.80 0.87 0.92 0.96 1.04 1.12 1.09 1.09 1.11 1.18 1.37 1.50 1.49 1.46 1.51 1.62 1.74 1.74 1.86 1.91 1.70 1.50 1.48 1.33 1.17 1.15 0.87
0.50 0.49 0.46 0.44 0.44 0.45 0.42 0.38 0.37 0.38 0.43 0.46 0.48 0.53 0.58 0.63 0.70 0.74 0.74 0.75 0.77 0.86 0.90 0.90 0.88 0.90 1.08 1.35 1.44 1.55 1.60 1.59 1.70 1.75 1.85 1.95 1.98 1.78 1.70 1.56 1.43 1.33 1.14
0.51 0.48 0.45 0.44 0.41 0.38 0.35 0.32 0.31 0.31 0.31 0.37 0.42 0.49 0.54 0.56 0.54 0.56 0.60 0.56 0.55 0.55 0.57 0.61 0.64 0.67 0.69 0.82 1.03 1.30 1.49 1.58 1.62 1.73 1.82 1.91 1.94 1.96 1.72 1.59 1.53 1.51 1.43
0.40 0.39 0.42 0.42 0.40 0.40 0.33 0.29 0.28 0.28 0.31 0.35 0.38 0.39 0.42 0.40 0.44 0.44 0.45 0.43 0.41 0.40 0.41 0.42 0.42 0.42 0.44 0.51 0.60 0.80 1.06 1.31 1.55 1.72 1.79 1.83 1.88 1.93 1.89 1.77 1.67 1.57 1.56
0.32 0.34 0.36 0.40 0.42 0.40 0.31 0.28 0.27 0.29 0.32 0.35 0.38 0.39 0.39 0.42 0.36 0.35 0.38 0.36 0.35 0.36 0.38 0.39 0.31 0.27 0.32 0.39 0.44 0.49 0.63 0.76 0.94 1.32 1.60 1.63 1.70 1.79 1.96 1.93 1.85 1.82 1.77
0.35 0.39 0.41 0.41 0.44 0.43 0.37 0.35 0.35 0.36 0.37 0.39 0.42 0.42 0.43 0.41 0.34 0.30 0.29 0.28 0.34 0.39 0.37 0.39 0.37 0.32 0.32 0.38 0.45 0.47 0.44 0.49 0.57 0.70 0.89 1.07 1.27 1.59 1.83 1.95 2.06 2.12 2.16
0.40 0.44 0.45 0.46 0.47 0.47 0.46 0.47 0.50 0.51 0.45 0.41 0.45 0.48 0.48 0.47 0.38 0.32 0.30 0.30 0.35 0.41 0.39 0.39 0.41 0.37 0.32 0.27 0.35 0.45 0.45 0.45 0.46 0.52 0.60 0.77 0.93 1.13 1.40 1.61 1.75 1.92 2.20
0.40 0.42 0.42 0.48 0.53 0.55 0.57 0.61 0.63 0.66 0.59 0.53 0.51 0.54 0.55 0.56 0.46 0.32 0.30 0.34 0.41 0.46 0.47 0.45 0.41 0.36 0.31 0.26 0.32 0.41 0.44 0.44 0.48 0.54 0.54 0.55 0.61 0.72 0.91 1.11 1.26 1.47 1.73
0.49 0.50 0.50 0.53 0.59 0.61 0.70 0.77 0.80 0.79 0.77 0.71 0.65 0.64 0.65 0.59 0.50 0.33 0.31 0.37 0.47 0.56 0.56 0.54 0.52 0.42 0.31 0.28 0.31 0.38 0.40 0.44 0.55 0.63 0.68 0.69 0.68 0.66 0.72 0.85 1.04 1.12 1.22
0.62 0.61 0.62 0.71 0.63 0.59 0.77 0.86 0.92 0.96 0.90 0.83 0.82 0.76 0.73 0.69 0.54 0.41 0.34 0.39 0.48 0.65 0.70 0.69 0.65 0.51 0.40 0.34 0.32 0.32 0.33 0.36 0.45 0.56 0.65 0.71 0.72 0.67 0.66 0.76 0.95 1.10 1.10
0.79 0.83 0.84 0.84 0.85 0.84 0.91 0.95 0.96 0.98 0.95 0.87 0.89 0.86 0.83 0.82 0.75 0.50 0.41 0.42 0.46 0.60 0.70 0.70 0.64 0.51 0.46 0.42 0.41 0.38 0.34 0.37 0.45 0.52 0.57 0.66 0.69 0.68 0.70 0.82 0.96 1.12 1.15
0.85 0.89 0.97 1.03 0.99 1.00 1.08 1.08 1.05 1.04 1.03 0.97 0.95 0.92 0.90 0.91 0.91 0.80 0.64 0.57 0.55 0.56 0.62 0.67 0.67 0.61 0.53 0.52 0.52 0.47 0.42 0.46 0.52 0.54 0.57 0.66 0.76 0.79 0.81 0.81 0.91 1.02 1.12
0.99 1.00 1.07 1.15 1.22 1.23 1.18 1.14 1.10 1.11 1.05 1.01 0.99 0.96 0.96 0.93 0.85 0.77 0.76 0.76 0.74 0.72 0.75 0.82 0.85 0.78 0.72 0.69 0.69 0.67 0.65 0.61 0.57 0.60 0.65 0.71 0.78 0.82 0.83 0.88 0.92 0.97 0.95
1.14 1.14 1.16 1.15 1.20 1.21 1.19 1.06 0.93 0.88 0.80 0.74 0.76 0.79 0.79 0.74 0.70 0.66 0.64 0.65 0.69 0.75 0.78 0.85 0.94 0.98 0.93 0.86 0.82 0.80 0.79 0.72 0.67 0.68 0.72 0.75 0.78 0.81 0.84 0.91 0.98 0.97 0.94
1.11 1.12 1.12 1.10 1.12 1.12 1.12 1.11 1.06 0.95 0.83 0.72 0.67 0.64 0.64 0.65 0.66 0.66 0.66 0.67 0.67 0.72 0.77 0.85 0.96 1.03 1.06 1.03 0.95 0.87 0.83 0.78 0.74 0.76 0.79 0.82 0.82 0.86 0.88 0.91 0.96 0.99 0.97
1.02 1.01 0.99 0.98 1.00 1.03 1.05 1.10 1.14 1.10 1.04 0.94 0.82 0.73 0.64 0.60 0.62 0.66 0.70 0.73 0.74 0.73 0.79 0.90 1.01 1.06 1.11 1.11 1.02 0.98 0.92 0.86 0.82 0.82 0.84 0.87 0.87 0.89 0.92 0.91 0.93 0.94 0.96
0.98 1.02 1.04 1.04 1.04 1.01 1.04 1.10 1.13 1.09 1.08 1.04 0.93 0.81 0.72 0.66 0.65 0.70 0.71 0.73 0.78 0.80 0.84 0.96 1.04 1.06 1.04 1.02 1.00 0.98 0.92 0.87 0.86 0.87 0.88 0.89 0.89 0.91 0.94 0.97 0.97 0.99 0.98
0.98 1.01 1.07 1.05 1.02 1.00 1.04 1.11 1.15 1.14 1.12 1.11 1.07 0.93 0.79 0.73 0.76 0.80 0.75 0.75 0.76 0.77 0.80 0.90 0.99 1.02 1.00 0.96 0.94 0.90 0.88 0.87 0.87 0.87 0.89 0.87 0.90 0.90 0.88 0.91 0.96 0.95 0.94
1.03 0.99 0.99 0.95 0.94 0.93 0.98 1.06 1.13 1.13 1.07 1.04 1.00 0.83 0.72 0.69 0.73 0.74 0.73 0.73 0.72 0.70 0.77 0.89 0.95 0.95 0.91 0.89 0.88 0.84 0.82 0.83 0.83 0.82 0.86 0.89 0.91 0.91 0.85 0.85 0.87 0.87 0.86
1.12 1.06 0.96 0.91 0.91 0.96 0.98 1.02 1.05 1.00 0.94 0.94 0.93 0.80 0.70 0.69 0.71 0.71 0.67 0.66 0.63 0.62 0.65 0.74 0.82 0.86 0.83 0.79 0.80 0.82 0.82 0.80 0.82 0.82 0.83 0.85 0.88 0.86 0.84 0.84 0.85 0.87 0.90
1.12 1.10 1.03 0.94 0.88 0.90 0.91 0.93 0.93 0.87 0.83 0.81 0.80 0.73 0.69 0.72 0.67 0.61 0.59 0.57 0.57 0.58 0.59 0.64 0.70 0.73 0.72 0.71 0.74 0.79 0.79 0.75 0.76 0.80 0.83 0.84 0.84 0.79 0.78 0.79 0.77 0.81 0.84
1.00 1.00 0.98 0.90 0.80 0.78 0.83 0.89 0.87 0.83 0.82 0.78 0.71 0.66 0.65 0.67 0.63 0.55 0.53 0.54 0.56 0.55 0.56 0.60 0.59 0.59 0.62 0.65 0.67 0.68 0.66 0.63 0.63 0.69 0.71 0.76 0.79 0.76 0.75 0.76 0.73 0.76 0.87
0.86 0.86 0.87 0.81 0.72 0.67 0.75 0.83 0.83 0.78 0.74 0.69 0.63 0.62 0.60 0.60 0.61 0.59 0.57 0.56 0.56 0.55 0.51 0.53 0.56 0.56 0.57 0.57 0.56 0.56 0.53 0.50 0.50 0.53 0.58 0.64 0.71 0.75 0.76 0.78 0.80 0.85 0.93
0.79 0.77 0.76 0.73 0.67 0.63 0.69 0.78 0.78 0.73 0.69 0.64 0.56 0.55 0.57 0.58 0.60 0.61 0.59 0.55 0.54 0.51 0.48 0.49 0.53 0.52 0.50 0.49 0.47 0.42 0.38 0.36 0.38 0.42 0.44 0.52 0.63 0.71 0.73 0.77 0.78 0.82 0.88

GEFSGL_prec_meanprecacc_156.txt.gz
Total_Precipitation_Accumulation
0.64 0.65 0.63 0.63 0.61 0.64 0.68 0.66 0.68 0.69 0.71 0.72 0.75 0.78 0.81 0.86 0.91 0.96 1.00 1.09 1.14 1.18 1.24 1.35 1.46 1.59 1.58 1.49 1.54 1.64 1.78 1.88 1.69 1.66 1.63 1.45 1.35 1.22 1.11 1.05 0.94 0.88 0.75
0.59 0.60 0.61 0.58 0.53 0.54 0.55 0.54 0.56 0.59 0.62 0.63 0.66 0.68 0.72 0.78 0.86 0.96 1.02 1.07 1.09 1.10 1.14 1.24 1.30 1.37 1.48 1.43 1.38 1.39 1.56 1.73 1.72 1.73 1.85 1.78 1.56 1.40 1.29 1.17 0.97 0.83 0.79
0.59 0.61 0.57 0.56 0.55 0.51 0.46 0.43 0.42 0.46 0.52 0.51 0.52 0.54 0.59 0.70 0.81 0.88 0.92 0.96 1.04 1.12 1.09 1.10 1.11 1.18 1.37 1.50 1.49 1.46 1.51 1.62 1.74 1.74 1.86 1.91 1.71 1.50 1.48 1.33 1.17 1.15 0.87
0.55 0.55 0.51 0.48 0.47 0.48 0.45 0.41 0.39 0.39 0.44 0.47 0.50 0.54 0.59 0.64 0.71 0.75 0.75 0.75 0.78 0.86 0.91 0.90 0.88 0.91 1.08 1.35 1.44 1.56 1.60 1.59 1.70 1.75 1.85 1.95 1.99 1.78 1.70 1.56 1.43 1.33 1.14
0.54 0.51 0.48 0.47 0.44 0.41 0.38 0.35 0.34 0.33 0.33 0.39 0.44 0.50 0.55 0.57 0.54 0.56 0.60 0.56 0.56 0.55 0.57 0.62 0.64 0.67 0.69 0.82 1.03 1.30 1.49 1.58 1.62 1.73 1.82 1.91 1.94 1.97 1.72 1.59 1.53 1.51 1.43
0.42 0.41 0.44 0.45 0.43 0.43 0.36 0.32 0.31 0.31 0.34 0.38 0.40 0.41 0.43 0.41 0.44 0.45 0.45 0.43 0.41 0.40 0.41 0.42 0.42 0.42 0.44 0.51 0.60 0.80 1.06 1.31 1.56 1.72 1.79 1.84 1.88 1.94 1.89 1.77 1.68 1.57 1.57
0.34 0.36 0.39 0.42 0.44 0.43 0.34 0.30 0.30 0.31 0.34 0.38 0.39 0.41 0.40 0.43 0.38 0.36 0.39 0.37 0.36 0.36 0.38 0.39 0.31 0.27 0.32 0.39 0.44 0.49 0.63 0.76 0.94 1.32 1.60 1.64 1.71 1.80 1.97 1.93 1.86 1.83 1.77
0.36 0.40 0.42 0.43 0.45 0.45 0.39 0.36 0.37 0.38 0.39 0.41 0.43 0.44 0.44 0.42 0.36 0.31 0.30 0.29 0.35 0.40 0.38 0.39 0.37 0.33 0.33 0.38 0.45 0.47 0.44 0.49 0.57 0.71 0.89 1.07 1.28 1.60 1.84 1.96 2.06 2.12 2.16
0.41 0.45 0.46 0.47 0.48 0.48 0.48 0.49 0.51 0.53 0.46 0.42 0.47 0.50 0.49 0.49 0.40 0.33 0.31 0.31 0.36 0.42 0.39 0.40 0.41 0.37 0.33 0.27 0.35 0.45 0.45 0.46 0.46 0.52 0.60 0.77 0.93 1.13 1.40 1.62 1.75 1.92 2.20
0.41 0.43 0.43 0.49 0.55 0.57 0.60 0.65 0.66 0.68 0.61 0.56 0.54 0.57 0.57 0.59 0.49 0.34 0.32 0.35 0.42 0.46 0.48 0.46 0.42 0.36 0.31 0.27 0.32 0.41 0.46 0.46 0.50 0.55 0.55 0.56 0.62 0.73 0.92 1.12 1.27 1.48 1.73
0.51 0.52 0.53 0.55 0.62 0.65 0.74 0.82 0.84 0.82 0.81 0.77 0.72 0.70 0.70 0.63 0.53 0.35 0.33 0.39 0.48 0.58 0.58 0.56 0.55 0.44 0.32 0.29 0.32 0.39 0.42 0.46 0.56 0.64 0.68 0.70 0.69 0.67 0.72 0.86 1.04 1.12 1.23
0.66 0.67 0.68 0.75 0.66 0.63 0.81 0.90 0.96 0.99 0.94 0.87 0.85 0.80 0.77 0.72 0.58 0.45 0.37 0.41 0.50 0.67 0.74 0.72 0.67 0.54 0.42 0.36 0.34 0.34 0.34 0.36 0.45 0.56 0.65 0.72 0.73 0.67 0.67 0.76 0.96 1.11 1.11
0.81 0.86 0.90 0.91 0.91 0.91 0.98 1.02 1.03 1.04 1.01 0.92 0.93 0.90 0.87 0.85 0.78 0.53 0.43 0.44 0.48 0.62 0.72 0.72 0.66 0.53 0.48 0.43 0.42 0.39 0.35 0.37 0.46 0.52 0.57 0.66 0.70 0.68 0.71 0.82 0.97 1.13 1.15
0.87 0.91 1.00 1.07 1.06 1.09 1.19 1.18 1.14 1.12 1.11 1.04 1.00 0.96 0.93 0.94 0.94 0.83 0.67 0.59 0.57 0.57 0.63 0.69 0.69 0.63 0.55 0.53 0.53 0.48 0.44 0.48 0.54 0.56 0.59 0.67 0.77 0.80 0.82 0.82 0.92 1.03 1.13
1.02 1.04 1.12 1.21 1.29 1.31 1.26 1.24 1.19 1.19 1.12 1.07 1.04 1.02 1.02 0.99 0.91 0.82 0.80 0.79 0.76 0.74 0.77 0.84 0.88 0.81 0.74 0.72 0.72 0.70 0.68 0.64 0.60 0.63 0.68 0.74 0.81 0.84 0.85 0.90 0.94 0.99 0.97
1.17 1.18 1.20 1.21 1.27 1.29 1.26 1.13 1.01 0.95 0.87 0.82 0.84 0.88 0.87 0.82 0.77 0.72 0.68 0.69 0.72 0.79 0.83 0.89 1.00 1.05 0.99 0.91 0.86 0.85 0.83 0.77 0.72 0.72 0.75 0.77 0.79 0.82 0.84 0.92 1.00 0.99 0.96
1.14 1.15 1.15 1.13 1.16 1.17 1.17 1.16 1.12 1.02 0.90 0.79 0.74 0.71 0.72 0.72 0.73 0.72 0.74 0.75 0.75 0.80 0.84 0.93 1.04 1.10 1.13 1.10 1.02 0.93 0.89 0.83 0.78 0.79 0.81 0.83 0.83 0.87 0.89 0.92 0.97 1.01 0.99
1.05 1.05 1.03 1.01 1.03 1.07 1.10 1.15 1.19 1.15 1.09 0.99 0.88 0.79 0.69 0.65 0.68 0.73 0.76 0.79 0.79 0.79 0.85 0.97 1.08 1.14 1.20 1.20 1.10 1.04 0.97 0.89 0.84 0.84 0.86 0.89 0.89 0.91 0.94 0.93 0.95 0.97 0.99
1.01 1.06 1.08 1.08 1.07 1.05 1.08 1.14 1.18 1.14 1.14 1.10 0.99 0.87 0.77 0.70 0.69 0.74 0.75 0.76 0.82 0.86 0.91 1.04 1.11 1.13 1.10 1.07 1.04 1.03 0.96 0.91 0.89 0.90 0.91 0.92 0.91 0.94 0.96 0.99 1.00 1.02 1.00
1.00 1.04 1.10 1.07 1.04 1.02 1.07 1.15 1.19 1.18 1.18 1.18 1.15 1.00 0.86 0.80 0.81 0.85 0.80 0.79 0.80 0.81 0.85 0.95 1.04 1.07 1.04 1.01 0.98 0.94 0.92 0.91 0.90 0.91 0.92 0.90 0.92 0.93 0.90 0.94 0.99 0.97 0.97
1.05 1.02 1.02 0.98 0.96 0.96 1.00 1.09 1.17 1.18 1.14 1.13 1.10 0.94 0.84 0.80 0.82 0.82 0.80 0.79 0.76 0.75 0.81 0.93 1.00 0.99 0.96 0.93 0.93 0.89 0.86 0.87 0.87 0.85 0.89 0.92 0.94 0.94 0.88 0.87 0.88 0.89 0.88
1.14 1.08 0.98 0.93 0.94 0.99 1.01 1.05 1.10 1.06 1.01 1.02 1.01 0.90 0.81 0.78 0.79 0.78 0.74 0.72 0.69 0.67 0.70 0.78 0.87 0.90 0.87 0.84 0.85 0.88 0.87 0.85 0.87 0.86 0.87 0.88 0.91 0.89 0.86 0.86 0.88 0.90 0.92
1.16 1.14 1.06 0.97 0.91 0.93 0.94 0.97 0.97 0.92 0.89 0.88 0.88 0.81 0.77 0.78 0.73 0.67 0.65 0.62 0.62 0.64 0.64 0.69 0.74 0.76 0.76 0.74 0.78 0.82 0.83 0.79 0.80 0.83 0.86 0.87 0.87 0.82 0.81 0.82 0.80 0.84 0.88
1.04 1.04 1.01 0.93 0.84 0.82 0.87 0.93 0.92 0.88 0.87 0.82 0.74 0.69 0.69 0.70 0.66 0.58 0.56 0.57 0.59 0.58 0.59 0.63 0.62 0.61 0.64 0.67 0.69 0.70 0.69 0.65 0.65 0.70 0.73 0.78 0.81 0.78 0.77 0.78 0.76 0.80 0.91
0.87 0.87 0.88 0.84 0.74 0.70 0.78 0.86 0.85 0.80 0.75 0.71 0.65 0.63 0.61 0.61 0.62 0.60 0.58 0.58 0.57 0.57 0.53 0.54 0.57 0.57 0.58 0.58 0.58 0.57 0.54 0.52 0.51 0.54 0.58 0.65 0.73 0.77 0.78 0.80 0.83 0.89 0.97
0.80 0.78 0.77 0.74 0.68 0.63 0.69 0.78 0.79 0.73 0.70 0.65 0.56 0.55 0.57 0.59 0.61 0.61 0.59 0.55 0.54 0.52 0.49 0.50 0.53 0.53 0.50 0.50 0.48 0.43 0.39 0.37 0.39 0.44 0.45 0.53 0.64 0.73 0.75 0.79 0.80 0.85 0.91